Theta_e
288 289 289 288 288 289 287 290 285 289 291 294 298 302 304 305 306 305 305 304 305 305 306 307 305 303 303 305 309 314 317 319 319 320 321 322 323 324 325 325 324 324 322 322
282 287 287 285 288 288 289 289 288 288 287 296 299 301 303 304 305 304 305 305 305 306 305 304 304 304 302 302 303 310 314 316 317 318 318 318 319 318 318 319 319 318 316 316
280 286 285 280 285 286 288 290 289 285 292 297 296 298 302 303 305 305 306 306 306 306 307 307 305 304 303 303 303 306 309 312 310 311 311 312 308 304 304 305 304 304 305 304
280 282 274 285 291 291 289 291 293 293 295 297 297 300 301 302 302 304 306 306 307 308 308 308 309 304 304 303 302 302 304 308 306 303 303 299 300 301 298 298 300 298 298 299
277 278 281 283 285 285 286 287 294 294 296 297 300 300 300 303 304 304 305 306 308 309 309 309 309 305 302 300 299 298 299 302 303 302 300 297 297 297 298 296 294 296 294 294
280 274 272 282 288 292 291 282 292 293 294 293 296 292 296 294 299 305 307 308 308 309 309 309 308 303 299 297 296 297 297 297 298 299 298 297 297 294 290 295 292 292 290 292
278 276 281 288 291 293 282 282 285 286 286 285 286 290 289 292 294 296 297 303 308 308 308 308 306 298 296 296 295 297 295 294 294 295 295 297 295 291 292 291 290 290 289 289
279 277 275 290 292 285 282 282 281 281 282 281 282 284 286 287 288 291 293 294 298 304 306 307 302 296 296 295 297 294 293 292 291 290 291 291 289 288 289 289 289 288 288 287
284 283 288 284 283 280 277 276 277 277 278 278 279 281 282 283 285 286 287 289 290 292 294 301 297 295 294 296 294 291 291 289 288 288 288 289 288 288 289 289 290 289 288 288
284 287 280 282 279 276 275 274 276 276 276 276 277 278 279 280 281 281 283 284 285 285 286 290 292 289 293 292 290 288 289 288 288 288 287 288 289 289 290 290 290 288 288 287
279 283 275 281 275 273 272 274 273 274 274 274 275 276 277 277 277 279 281 281 280 282 283 285 287 288 287 287 288 288 287 288 287 288 287 287 289 290 290 290 291 288 288 288
278 270 268 270 272 271 270 269 270 270 270 272 273 274 274 274 275 276 277 277 277 278 279 280 283 284 285 285 286 287 287 287 288 288 288 288 288 287 290 290 290 291 291 289
267 268 267 268 270 271 267 268 268 268 269 269 271 271 271 272 273 274 274 274 274 275 277 278 279 278 277 284 286 286 286 287 287 287 287 287 286 286 284 286 289 290 289 289
267 265 265 267 264 266 267 267 267 266 268 268 268 269 269 269 270 269 268 268 270 271 271 272 272 272 273 276 285 285 286 286 287 287 287 287 287 287 286 284 282 283 287 286
264 263 263 264 264 264 264 264 263 263 265 265 266 266 266 267 266 266 266 266 268 268 267 269 269 270 271 274 282 284 284 284 285 286 286 286 286 286 285 285 284 283 283 285
261 260 261 260 260 261 261 261 261 261 263 263 264 266 266 266 267 266 267 266 264 263 264 266 267 268 271 274 281 282 283 283 283 284 285 285 285 284 283 283 281 281 283 282
256 258 258 258 258 259 260 261 261 261 261 262 262 265 266 265 265 264 264 265 266 265 265 265 267 268 269 272 275 278 279 280 281 281 281 282 281 281 281 280 280 280 278 276
259 259 259 259 258 259 259 261 261 260 261 261 262 264 264 263 263 263 263 263 264 264 264 265 267 267 268 271 272 274 275 275 275 275 276 278 278 278 278 278 278 274 274 278
259 259 259 259 259 259 259 260 260 260 261 261 261 261 263 263 262 264 264 262 261 261 262 264 268 267 266 268 271 271 272 272 272 271 272 274 275 276 276 275 274 274 273 272
259 259 259 259 259 259 258 260 259 259 260 260 260 260 261 261 262 261 262 262 261 261 263 264 266 266 266 267 269 270 270 270 270 271 271 271 272 271 273 273 273 272 271 270
258 258 258 258 258 259 259 259 258 258 259 260 259 258 259 261 261 261 259 259 260 262 263 264 264 265 265 266 266 267 267 268 268 269 269 269 270 270 270 270 270 270 270 269
258 257 257 257 257 257 258 258 258 258 258 258 258 258 258 259 261 260 261 258 260 261 262 262 263 264 264 265 265 265 265 265 266 266 267 267 267 268 268 268 268 268 268 268
256 256 256 256 255 256 257 257 256 257 256 257 257 257 257 258 259 257 256 259 259 260 261 261 262 264 263 263 263 263 264 264 264 264 264 265 265 266 266 267 267 267 267 267
254 254 254 255 255 256 255 256 255 257 256 257 257 257 256 256 257 260 258 258 259 259 259 261 261 263 261 261 261 261 262 262 263 263 263 264 264 264 265 265 265 266 266 266
251 251 252 252 255 255 254 255 255 256 256 257 257 258 257 257 256 257 257 258 258 258 258 259 261 260 259 259 259 259 260 260 261 261 262 262 262 263 263 264 264 264 265 265
254 255 254 252 254 254 254 254 254 256 254 254 255 256 256 256 256 256 256 256 256 256 257 257 257 257 257 257 257 257 258 258 259 259 259 259 260 261 261 262 262 263 263 264
254 252 255 256 256 255 253 253 252 253 253 253 252 254 254 254 255 255 255 255 255 255 255 255 255 255 255 255 256 256 256 257 257 257 257 257 257 258 258 259 259 260 261 262
Wind_Speed
22 20 21 20 15 11 11 18 19 24 27 38 26 22 21 19 18 18 16 12 12 11 10 10 6 7 8 9 8 10 11 13 16 15 14 14 14 14 13 14 14 14 14 13
6 14 16 21 23 23 23 22 18 23 28 36 28 24 28 22 20 20 22 18 14 15 11 11 10 9 8 10 10 9 12 14 13 13 11 11 11 11 12 12 13 11 11 11
6 8 13 11 23 23 23 24 22 22 28 30 29 20 18 20 22 22 22 16 16 17 19 15 9 10 11 11 8 10 11 10 8 8 10 11 8 7 7 7 5 6 7 8
4 3 9 12 13 16 18 20 20 22 28 31 27 20 18 21 24 23 21 25 25 22 22 17 11 10 9 6 9 10 12 12 11 10 10 7 9 10 7 7 9 7 7 8
4 6 14 22 18 15 17 21 18 21 27 27 18 18 26 21 19 23 24 25 23 20 19 17 17 8 7 8 8 8 12 12 12 13 12 9 10 11 9 8 6 8 7 9
4 6 9 15 8 11 13 19 13 16 19 20 16 15 7 26 27 21 19 17 18 20 19 18 16 6 8 9 9 14 12 11 8 10 12 13 12 10 4 6 8 7 7 8
11 10 13 5 12 11 12 7 19 17 16 18 11 15 22 21 23 22 22 27 22 19 18 18 12 8 11 9 15 13 8 9 10 11 11 10 9 5 8 7 8 8 9 7
8 9 17 13 3 14 9 7 12 19 18 22 22 22 24 23 21 22 24 25 23 22 18 13 8 8 12 14 13 8 8 9 8 8 8 7 9 7 7 9 10 9 8 6
10 9 11 9 7 8 14 14 15 18 23 22 25 24 24 25 23 22 22 19 19 19 22 15 5 8 13 17 8 8 8 9 9 9 9 10 12 12 9 10 9 9 9 8
9 10 9 8 9 13 17 18 17 16 19 25 27 25 22 19 20 21 19 19 19 20 19 18 8 7 14 5 5 7 9 8 9 11 10 9 7 8 9 10 9 10 9 8
10 10 20 12 14 18 25 20 19 20 20 21 24 24 23 20 19 19 20 18 18 17 18 18 14 10 6 4 5 5 5 8 9 8 11 10 9 9 9 8 9 10 9 10
8 10 6 14 19 26 20 22 22 23 25 21 22 23 23 18 16 17 17 16 16 16 17 16 15 11 11 8 4 5 7 6 7 7 9 8 9 6 6 9 13 13 13 11
7 16 16 21 22 12 22 22 22 21 21 24 21 19 21 19 16 16 13 13 14 15 14 14 13 12 14 13 6 4 3 6 6 8 8 9 8 9 9 5 12 14 17 16
10 11 8 9 14 21 19 20 20 19 16 17 18 17 16 16 14 13 13 14 15 12 13 13 12 11 13 15 8 3 2 4 5 6 6 7 8 9 8 10 9 6 12 13
5 9 12 14 15 15 16 16 17 16 17 16 16 15 15 15 13 14 13 14 13 13 14 14 13 13 14 13 9 4 2 1 1 3 4 6 6 6 7 8 8 8 7 10
10 10 7 10 13 13 16 16 16 17 16 17 16 17 15 13 11 11 12 13 14 13 15 16 14 14 14 13 8 4 3 3 2 2 3 5 5 6 6 7 7 8 8 7
5 5 9 10 11 14 15 13 13 13 14 15 16 16 15 14 12 13 14 14 11 10 12 14 16 14 14 13 10 5 4 4 4 2 3 3 3 4 5 6 7 6 5 5
4 6 7 8 11 12 14 14 12 13 12 13 14 14 14 14 13 13 13 13 12 11 14 16 17 16 14 16 12 8 4 4 4 4 4 3 3 4 4 5 6 6 6 8
3 5 7 6 7 9 10 12 13 13 11 12 12 13 12 13 13 11 9 11 13 14 17 17 21 17 16 19 15 9 8 8 7 6 4 4 4 3 3 4 5 6 7 6
4 5 7 9 7 6 8 8 11 11 11 11 11 12 12 11 10 11 11 8 11 10 14 15 15 15 16 16 16 9 10 10 9 7 7 6 6 5 4 5 5 6 6 5
4 5 7 8 8 7 6 8 9 10 12 11 10 10 11 10 11 8 11 9 14 15 14 14 13 11 10 13 11 10 10 10 9 8 8 7 6 6 6 6 5 5 5 5
5 4 5 6 7 7 6 7 8 8 9 9 10 9 10 11 9 10 5 8 9 17 11 9 10 16 13 14 9 10 10 10 9 7 7 7 7 6 6 6 5 4 4 3
4 4 5 5 5 7 7 5 7 7 8 7 8 9 9 8 7 8 9 12 10 14 10 9 16 19 17 9 9 9 9 9 8 8 8 7 7 6 5 5 4 3 2 1
3 3 4 5 5 4 6 8 8 7 6 7 6 6 7 6 6 4 7 11 13 13 9 10 14 17 15 9 9 9 9 9 8 8 7 8 6 5 4 4 3 2 2 2
3 3 3 3 4 4 5 7 7 5 7 8 8 6 8 6 5 8 8 9 14 12 9 12 15 15 8 8 8 9 8 8 8 8 8 7 6 6 6 5 4 4 3 3
2 2 3 2 3 4 4 5 5 5 6 7 6 6 6 5 6 7 7 9 8 10 8 8 8 8 8 8 9 9 8 8 8 7 8 7 7 7 7 7 6 6 5 5
3 2 2 1 0 3 3 4 5 6 5 5 7 6 6 6 7 8 9 8 8 7 7 7 7 7 7 7 7 7 7 7 8 7 7 7 7 7 7 8 7 7 7 6
Wind_Direction
246 253 258 268 247 246 256 257 254 260 253 270 262 268 287 287 287 297 295 277 283 277 268 279 246 240 239 242 224 211 225 226 225 220 219 218 212 207 203 202 203 201 201 205
269 264 264 270 268 261 253 237 247 259 270 268 276 283 285 296 300 296 292 292 292 293 275 258 253 238 224 222 220 213 214 221 221 217 211 208 204 199 197 199 198 194 194 191
245 235 239 254 247 257 259 254 251 244 251 267 272 264 269 278 273 270 275 284 285 280 276 270 240 233 231 228 200 201 220 218 213 211 203 198 180 165 171 170 148 163 164 161
289 346 252 250 267 263 263 256 251 250 258 261 270 287 281 269 265 271 273 268 263 262 267 272 268 218 237 216 208 206 210 211 203 201 199 179 171 179 169 161 176 170 165 160
251 247 284 285 277 261 245 260 247 244 255 266 279 289 264 264 266 269 271 271 271 272 274 277 269 232 205 205 202 207 219 214 197 203 202 182 190 186 178 160 163 167 157 150
203 241 254 270 316 320 256 262 349 308 291 347 332 258 303 344 341 330 313 292 282 273 267 265 263 206 199 216 206 221 217 208 197 186 188 192 189 181 149 162 155 146 148 159
233 248 262 279 237 246 237 291 338 351 344 339 320 315 331 324 327 327 323 324 296 287 279 259 254 192 221 219 225 226 192 176 181 185 184 185 166 155 159 150 142 151 154 152
212 237 260 351 356 231 9 21 342 331 332 324 314 317 318 322 325 323 328 328 328 313 277 265 234 179 232 231 238 202 176 181 182 168 159 148 146 132 150 152 150 151 148 146
211 225 104 39 63 40 20 353 350 330 326 322 313 319 323 320 321 323 322 323 323 319 309 300 275 199 237 247 198 174 178 182 167 159 157 159 161 159 159 168 167 164 167 166
298 265 27 33 58 14 359 343 337 328 323 317 314 320 316 319 320 319 324 329 326 322 314 307 293 252 251 293 161 170 184 172 167 168 161 158 163 166 167 176 177 169 168 167
271 299 334 158 9 357 333 336 333 324 318 313 310 309 315 317 318 317 318 328 327 325 320 318 319 312 328 281 164 186 172 171 170 172 169 165 176 178 176 182 181 175 174 167
278 352 316 288 320 327 334 332 332 328 321 321 312 311 314 313 311 309 318 323 324 326 324 327 325 343 339 322 307 167 170 170 177 176 174 175 165 139 135 145 157 162 163 169
285 321 305 295 298 327 330 326 327 322 319 315 322 317 315 311 314 315 317 324 324 328 329 337 339 1 351 333 309 244 225 179 174 171 174 167 162 162 147 116 140 155 151 159
302 332 296 345 312 316 323 324 325 319 322 326 319 317 317 315 323 333 338 329 319 339 355 350 332 1 343 332 323 1 35 167 178 177 174 174 167 165 162 159 164 152 156 161
357 326 297 304 314 319 325 330 332 333 336 331 327 333 335 328 340 343 345 345 344 358 351 337 331 354 342 318 316 0 32 67 138 156 163 163 161 160 159 161 155 141 141 161
319 307 306 312 316 326 331 334 338 336 332 332 333 337 340 337 337 348 356 3 12 2 341 333 346 338 335 322 334 7 17 48 36 81 134 148 157 160 157 154 144 148 156 167
323 328 324 321 329 331 332 328 326 319 322 334 330 335 346 351 355 4 2 359 355 7 353 341 338 346 340 337 341 7 19 25 44 72 83 93 105 145 146 143 145 148 119 138
275 281 289 303 320 327 326 322 320 326 328 327 339 348 358 355 358 6 2 352 352 3 5 351 347 351 354 357 353 360 5 26 38 47 38 47 81 107 135 137 137 124 133 142
290 312 313 324 345 323 313 323 326 313 332 348 351 353 358 3 357 353 358 3 8 2 351 345 349 358 359 359 5 360 7 26 29 24 34 55 62 68 83 109 124 131 114 112
340 357 332 327 338 332 322 320 320 327 337 348 356 3 355 356 356 354 351 18 8 348 339 344 349 1 359 356 1 5 17 22 27 29 31 37 40 45 51 73 96 96 99 100
344 359 337 328 327 323 328 326 328 339 339 349 352 1 337 342 349 340 6 5 353 347 347 346 352 4 358 355 359 5 14 18 22 23 23 26 31 41 47 50 57 65 79 80
327 342 329 325 323 318 332 337 340 339 344 348 351 352 345 344 348 348 0 3 333 349 346 345 350 1 356 356 360 8 9 12 13 14 17 19 21 24 32 31 38 42 53 67
310 318 316 318 313 310 311 343 344 346 346 345 345 349 346 330 331 349 343 346 341 344 347 344 345 356 356 359 1 3 8 9 8 7 7 5 4 9 9 13 17 23 29 59
297 303 301 310 298 314 345 343 340 338 337 327 333 336 343 338 329 10 325 325 333 343 338 342 346 354 356 356 356 358 1 359 360 0 355 353 351 351 346 345 335 332 301 264
296 279 258 306 323 347 325 335 319 338 341 335 334 341 347 344 324 321 326 330 337 341 334 340 347 352 356 356 352 349 350 349 348 344 345 345 341 337 332 325 314 303 295 279
286 305 312 295 302 325 327 328 331 328 335 328 323 332 335 329 322 324 325 329 331 333 334 338 342 346 349 349 343 342 340 339 342 338 333 330 328 325 319 314 308 304 298 288
241 249 288 260 190 330 324 317 315 322 325 320 307 310 323 318 322 324 329 330 330 331 335 340 339 344 340 334 334 332 329 328 328 325 320 317 316 313 311 310 309 307 303 297